�������l�o���
Date,Time,MP-1(��Sv/h),MP-2(��Sv/h),MP-3(��Sv/h),MP-4(��Sv/h),MP-5(��Sv/h),MP-6(��Sv/h),MP-7(��Sv/h),MP-8(��Sv/h),����,����(m/s),���J
2021/10/07,00:00,0.575,0.856,0.547,1.043,0.735,0.353,0.613,0.577,��쐼,2.0,��
2021/10/07,00:10,0.574,0.854,0.547,1.043,0.735,0.353,0.613,0.577,��쐼,2.5,��
2021/10/07,00:20,0.575,0.854,0.548,1.044,0.735,0.354,0.614,0.577,��쐼,2.5,��
2021/10/07,00:30,0.575,0.855,0.547,1.044,0.734,0.353,0.613,0.579,��쐼,2.3,��
2021/10/07,00:40,0.573,0.856,0.549,1.042,0.735,0.352,0.615,0.577,��쐼,1.5,��
2021/10/07,00:50,0.575,0.857,0.547,1.043,0.733,0.353,0.614,0.580,�쐼,1.2,��
2021/10/07,01:00,0.575,0.854,0.547,1.040,0.734,0.353,0.614,0.577,��,1.2,��
2021/10/07,01:10,0.574,0.855,0.547,1.043,0.735,0.354,0.614,0.579,��쓌,0.6,��
2021/10/07,01:20,0.575,0.855,0.546,1.044,0.735,0.355,0.612,0.577,��,1.4,��
2021/10/07,01:30,0.574,0.855,0.548,1.043,0.736,0.354,0.614,0.577,��쐼,2.6,��
2021/10/07,01:40,0.574,0.856,0.548,1.042,0.737,0.353,0.614,0.578,��,2.5,��
2021/10/07,01:50,0.575,0.855,0.547,1.044,0.735,0.354,0.614,0.578,��,2.6,��
2021/10/07,02:00,0.575,0.856,0.548,1.044,0.736,0.355,0.615,0.577,��,2.2,��
2021/10/07,02:10,0.575,0.855,0.549,1.042,0.737,0.354,0.616,0.578,��,2.6,��
2021/10/07,02:20,0.577,0.855,0.548,1.043,0.736,0.356,0.615,0.577,��,1.7,��
2021/10/07,02:30,0.576,0.855,0.548,1.046,0.738,0.355,0.614,0.578,��,3.0,�L
2021/10/07,02:40,0.575,0.855,0.547,1.043,0.735,0.355,0.612,0.577,��,2.5,�L
2021/10/07,02:50,0.573,0.855,0.549,1.044,0.736,0.353,0.615,0.579,�쐼,0.8,��
2021/10/07,03:00,0.574,0.856,0.549,1.046,0.736,0.354,0.614,0.578,��쐼,2.0,��
2021/10/07,03:10,0.575,0.855,0.548,1.044,0.736,0.355,0.615,0.577,��,4.4,��
2021/10/07,03:20,0.576,0.855,0.549,1.043,0.737,0.354,0.614,0.578,��쐼,4.1,��
2021/10/07,03:30,0.576,0.857,0.548,1.046,0.739,0.355,0.614,0.579,��쐼,3.9,��
2021/10/07,03:40,0.575,0.855,0.549,1.046,0.737,0.354,0.615,0.579,��,4.6,��
2021/10/07,03:50,0.576,0.855,0.548,1.044,0.738,0.355,0.614,0.579,��,4.1,�L
2021/10/07,04:00,0.576,0.856,0.548,1.044,0.737,0.355,0.615,0.578,��,4.3,��
2021/10/07,04:10,0.575,0.856,0.549,1.045,0.737,0.354,0.614,0.577,��,5.0,��
2021/10/07,04:20,0.576,0.858,0.549,1.044,0.737,0.355,0.614,0.578,��,4.2,��
2021/10/07,04:30,0.577,0.856,0.550,1.043,0.736,0.355,0.613,0.578,��,4.1,��
2021/10/07,04:40,0.575,0.858,0.547,1.044,0.736,0.354,0.614,0.578,��,4.8,��
2021/10/07,04:50,0.574,0.856,0.548,1.044,0.736,0.353,0.613,0.579,��,3.4,��
2021/10/07,05:00,0.575,0.857,0.549,1.043,0.736,0.353,0.613,0.578,��,5.4,��
2021/10/07,05:10,0.577,0.857,0.548,1.045,0.736,0.354,0.612,0.579,��,4.8,��
2021/10/07,05:20,0.577,0.856,0.550,1.045,0.738,0.354,0.614,0.577,��,5.3,��
2021/10/07,05:30,0.576,0.855,0.548,1.045,0.739,0.354,0.615,0.577,��,5.3,��
2021/10/07,05:40,0.576,0.857,0.551,1.048,0.737,0.354,0.615,0.578,��,5.4,��
2021/10/07,05:50,0.575,0.858,0.550,1.045,0.735,0.354,0.613,0.579,��,2.6,��
2021/10/07,06:00,0.575,0.858,0.550,1.044,0.738,0.355,0.616,0.578,��,3.0,��
2021/10/07,06:10,0.576,0.859,0.550,1.047,0.736,0.354,0.613,0.576,��쐼,4.3,��
2021/10/07,06:20,0.574,0.860,0.551,1.046,0.738,0.354,0.614,0.578,��쐼,4.7,��
2021/10/07,06:30,0.575,0.858,0.550,1.046,0.737,0.355,0.615,0.577,��쐼,4.0,��
2021/10/07,06:40,0.577,0.859,0.550,1.045,0.739,0.354,0.614,0.578,��쐼,4.2,��
2021/10/07,06:50,0.574,0.857,0.549,1.046,0.737,0.355,0.613,0.579,��쐼,4.9,��
2021/10/07,07:00,0.577,0.858,0.551,1.046,0.737,0.354,0.614,0.577,��쐼,4.4,��
2021/10/07,07:10,0.576,0.859,0.550,1.045,0.737,0.355,0.614,0.579,��쐼,4.9,��
2021/10/07,07:20,0.578,0.857,0.548,1.044,0.738,0.355,0.615,0.578,��쐼,4.0,��
2021/10/07,07:30,0.577,0.857,0.548,1.046,0.737,0.355,0.614,0.578,��쐼,3.6,��
2021/10/07,07:40,0.578,0.857,0.552,1.046,0.739,0.353,0.612,0.577,��쐼,3.2,��
2021/10/07,07:50,0.577,0.859,0.549,1.044,0.738,0.355,0.613,0.578,��쐼,3.2,��
2021/10/07,08:00,0.575,0.858,0.550,1.046,0.739,0.353,0.613,0.578,��쐼,3.3,��
2021/10/07,08:10,0.577,0.858,0.550,1.044,0.737,0.352,0.614,0.578,��,4.1,��
2021/10/07,08:20,0.577,0.859,0.551,1.046,0.737,0.353,0.612,0.578,��쐼,2.3,��
2021/10/07,08:30,0.576,0.858,0.550,1.044,0.738,0.355,0.614,0.578,��,2.3,��
2021/10/07,08:40,0.575,0.857,0.549,1.046,0.737,0.353,0.612,0.577,��,2.9,��
2021/10/07,08:50,0.575,0.855,0.548,1.047,0.738,0.352,0.612,0.577,��쓌,3.3,��
2021/10/07,09:00,0.575,0.855,0.548,1.045,0.737,0.351,0.613,0.577,��쓌,4.4,��
2021/10/07,09:10,0.577,0.855,0.548,1.043,0.737,0.353,0.612,0.577,��쓌,4.5,��
2021/10/07,09:20,0.576,0.857,0.549,1.047,0.736,0.353,0.614,0.576,��,4.0,��
2021/10/07,09:30,0.576,0.854,0.549,1.047,0.738,0.351,0.613,0.576,��,4.4,��
2021/10/07,09:40,0.578,0.855,0.549,1.044,0.738,0.353,0.613,0.575,��쓌,4.6,��
2021/10/07,09:50,0.576,0.857,0.548,1.047,0.740,0.352,0.615,0.574,��쓌,4.0,��
2021/10/07,10:00,0.572,0.858,0.547,1.046,0.739,0.352,0.613,0.576,��쓌,4.5,��
2021/10/07,10:10,0.577,0.854,0.548,1.045,0.740,0.353,0.614,0.576,��쓌,5.1,��
2021/10/07,10:20,0.577,0.859,0.551,1.045,0.740,0.353,0.614,0.576,��쓌,5.0,��
2021/10/07,10:30,0.578,0.860,0.549,1.047,0.740,0.354,0.615,0.576,��쓌,6.5,��
2021/10/07,10:40,0.578,0.858,0.549,1.049,0.740,0.352,0.613,0.575,��,6.0,��
2021/10/07,10:50,0.577,0.859,0.548,1.046,0.741,0.354,0.616,0.576,��,5.8,��
2021/10/07,11:00,0.578,0.861,0.550,1.045,0.741,0.355,0.615,0.577,��쓌,6.8,��
2021/10/07,11:10,0.577,0.859,0.549,1.047,0.741,0.354,0.614,0.576,��쓌,6.3,��
2021/10/07,11:20,0.576,0.860,0.550,1.048,0.740,0.354,0.616,0.576,��,5.5,��
2021/10/07,11:30,0.578,0.859,0.551,1.049,0.741,0.354,0.614,0.575,��쓌,5.3,��
2021/10/07,11:40,0.578,0.860,0.549,1.047,0.741,0.355,0.616,0.578,��쓌,5.7,��
2021/10/07,11:50,0.578,0.864,0.552,1.049,0.740,0.354,0.615,0.576,��쓌,6.6,��
2021/10/07,12:00,0.579,0.863,0.550,1.047,0.741,0.353,0.614,0.577,��쓌,6.2,��
2021/10/07,12:10,0.577,0.863,0.551,1.046,0.741,0.355,0.616,0.578,��쓌,6.6,��
2021/10/07,12:20,0.580,0.864,0.551,1.049,0.742,0.354,0.615,0.578,��,7.8,��
2021/10/07,12:30,0.579,0.862,0.551,1.049,0.742,0.356,0.616,0.577,��쓌,8.5,��
2021/10/07,12:40,0.580,0.863,0.552,1.050,0.742,0.355,0.615,0.576,��쓌,8.1,��
2021/10/07,12:50,0.581,0.863,0.552,1.050,0.744,0.356,0.617,0.577,��쓌,7.4,��
2021/10/07,13:00,0.579,0.864,0.551,1.050,0.744,0.356,0.615,0.577,��쓌,7.5,��
2021/10/07,13:10,0.581,0.863,0.551,1.050,0.742,0.357,0.616,0.578,��,7.8,��
2021/10/07,13:20,0.579,0.861,0.552,1.047,0.742,0.356,0.616,0.577,��쓌,7.1,��
2021/10/07,13:30,0.580,0.864,0.551,1.049,0.743,0.356,0.617,0.576,��쓌,7.7,��
2021/10/07,13:40,0.582,0.864,0.552,1.048,0.744,0.357,0.617,0.577,��,4.8,��
2021/10/07,13:50,0.580,0.863,0.551,1.052,0.744,0.358,0.617,0.577,��쓌,6.4,��
2021/10/07,14:00,0.579,0.865,0.553,1.049,0.743,0.355,0.616,0.578,��쓌,8.0,��
2021/10/07,14:10,0.582,0.864,0.554,1.050,0.745,0.356,0.618,0.578,��,7.2,��
2021/10/07,14:20,0.582,0.864,0.552,1.050,0.745,0.357,0.618,0.577,��쓌,8.1,��
2021/10/07,14:30,0.582,0.865,0.555,1.050,0.743,0.357,0.616,0.577,��,8.1,��
2021/10/07,14:40,0.581,0.865,0.554,1.053,0.745,0.358,0.618,0.578,��,6.6,��
2021/10/07,14:50,0.580,0.865,0.553,1.052,0.746,0.356,0.618,0.577,��,8.4,��
2021/10/07,15:00,0.580,0.866,0.553,1.051,0.745,0.358,0.618,0.577,��,6.8,��
2021/10/07,15:10,0.580,0.865,0.553,1.050,0.745,0.357,0.618,0.577,��,7.3,��
2021/10/07,15:20,0.579,0.865,0.552,1.054,0.745,0.356,0.618,0.576,��,8.6,��
2021/10/07,15:30,0.581,0.864,0.552,1.054,0.744,0.356,0.618,0.578,��,8.9,��
2021/10/07,15:40,0.581,0.865,0.553,1.052,0.745,0.357,0.618,0.576,��,8.7,��
2021/10/07,15:50,0.580,0.866,0.551,1.054,0.745,0.358,0.617,0.579,��,8.6,��
2021/10/07,16:00,0.583,0.864,0.552,1.052,0.744,0.356,0.618,0.579,��,8.0,��
2021/10/07,16:10,0.581,0.865,0.552,1.053,0.745,0.357,0.617,0.577,��,9.0,��
2021/10/07,16:20,0.582,0.867,0.554,1.052,0.743,0.357,0.618,0.578,��,9.0,��
2021/10/07,16:30,0.580,0.867,0.554,1.053,0.746,0.358,0.618,0.577,��,9.3,��
2021/10/07,16:40,0.579,0.867,0.555,1.054,0.747,0.357,0.618,0.580,��,10.5,��
2021/10/07,16:50,0.581,0.865,0.555,1.053,0.741,0.357,0.619,0.579,��,8.8,��
2021/10/07,17:00,0.581,0.866,0.555,1.052,0.745,0.356,0.618,0.580,��,9.0,��
2021/10/07,17:10,0.582,0.868,0.554,1.053,0.746,0.356,0.618,0.582,��,9.7,��
2021/10/07,17:20,0.582,0.868,0.554,1.053,0.745,0.358,0.618,0.580,��,8.2,��
2021/10/07,17:30,0.580,0.866,0.555,1.054,0.745,0.357,0.618,0.582,��,8.9,��
2021/10/07,17:40,0.582,0.866,0.555,1.055,0.746,0.357,0.618,0.580,��,8.4,��
2021/10/07,17:50,0.582,0.868,0.554,1.055,0.745,0.357,0.620,0.580,��,8.3,��
2021/10/07,18:00,0.581,0.867,0.555,1.055,0.745,0.358,0.619,0.580,��,9.7,��
2021/10/07,18:10,0.581,0.866,0.556,1.054,0.746,0.357,0.617,0.581,��,10.5,��
2021/10/07,18:20,0.581,0.868,0.556,1.054,0.747,0.357,0.619,0.580,��,9.7,��
2021/10/07,18:30,0.582,0.868,0.557,1.055,0.744,0.358,0.618,0.579,��,9.9,��
2021/10/07,18:40,0.583,0.868,0.556,1.051,0.747,0.358,0.618,0.579,��,8.5,��
2021/10/07,18:50,0.582,0.870,0.557,1.055,0.747,0.358,0.619,0.579,��,10.2,��
2021/10/07,19:00,0.582,0.870,0.557,1.055,0.746,0.358,0.619,0.581,��,9.0,��
2021/10/07,19:10,0.582,0.871,0.556,1.053,0.747,0.358,0.619,0.581,��,8.4,��
2021/10/07,19:20,0.582,0.870,0.555,1.055,0.747,0.358,0.622,0.580,��,8.3,��
2021/10/07,19:30,0.581,0.871,0.555,1.055,0.747,0.358,0.620,0.581,��,11.1,��
2021/10/07,19:40,0.582,0.872,0.558,1.053,0.748,0.358,0.620,0.581,��,9.7,��
2021/10/07,19:50,0.581,0.869,0.557,1.056,0.749,0.358,0.620,0.580,��,10.0,��
2021/10/07,20:00,0.581,0.872,0.557,1.056,0.748,0.358,0.621,0.580,��,7.9,��
2021/10/07,20:10,0.580,0.872,0.557,1.053,0.749,0.357,0.621,0.582,��,8.8,��
2021/10/07,20:20,0.582,0.876,0.556,1.055,0.749,0.358,0.621,0.582,��,8.8,��
2021/10/07,20:30,0.580,0.873,0.558,1.054,0.747,0.357,0.620,0.579,��,8.4,��
2021/10/07,20:40,0.580,0.874,0.556,1.056,0.749,0.357,0.622,0.579,��,9.3,��
2021/10/07,20:50,0.581,0.874,0.557,1.054,0.749,0.357,0.621,0.580,��,8.6,��
2021/10/07,21:00,0.580,0.872,0.556,1.054,0.751,0.357,0.619,0.582,��,9.6,��
2021/10/07,21:10,0.583,0.872,0.556,1.056,0.747,0.357,0.620,0.581,��,10.5,��
2021/10/07,21:20,0.582,0.872,0.554,1.054,0.749,0.357,0.620,0.581,��쓌,11.3,��
2021/10/07,21:30,0.583,0.872,0.556,1.055,0.749,0.358,0.621,0.581,��,10.3,��
2021/10/07,21:40,0.584,0.874,0.556,1.055,0.749,0.357,0.622,0.581,��쓌,10.5,��
2021/10/07,21:50,0.584,0.873,0.558,1.054,0.750,0.357,0.620,0.582,��,10.7,��
2021/10/07,22:00,0.583,0.871,0.556,1.056,0.748,0.356,0.621,0.581,��,9.1,��
2021/10/07,22:10,0.581,0.872,0.555,1.054,0.748,0.357,0.620,0.579,��,8.4,��
2021/10/07,22:20,0.581,0.872,0.558,1.053,0.749,0.357,0.622,0.581,��,7.4,��
2021/10/07,22:30,0.583,0.872,0.557,1.055,0.749,0.358,0.622,0.581,��,7.7,��
2021/10/07,22:40,0.582,0.872,0.555,1.058,0.749,0.357,0.622,0.579,��,6.5,��
2021/10/07,22:50,0.584,0.872,0.557,1.054,0.751,0.359,0.619,0.579,��,6.6,��
2021/10/07,23:00,0.583,0.872,0.557,1.055,0.749,0.357,0.620,0.580,��,7.6,��
2021/10/07,23:10,0.581,0.871,0.557,1.054,0.751,0.359,0.621,0.583,��,7.7,��
2021/10/07,23:20,0.582,0.873,0.558,1.053,0.750,0.358,0.621,0.580,��,7.4,��
2021/10/07,23:30,0.583,0.870,0.557,1.056,0.750,0.358,0.622,0.582,��,8.5,��
2021/10/07,23:40,0.583,0.872,0.554,1.052,0.750,0.359,0.622,0.581,��,8.0,��
2021/10/07,23:50,0.584,0.872,0.558,1.054,0.750,0.358,0.620,0.580,��,8.7,��
